Location: Sternwarte_Laufen
(47.9344°N, 12.9346°E)
Time: 01:10:58
(UTC+02:00)

Envisat - Pass Details

Date: 10 May 2026
Orbit: 761 x 763 km, 98.4° (Epoch: 7 June)

Event Time Altitude Azimuth Distance (km) Brightness Sun altitude
Rises 02:24:46 0° 30° (NNE) 3,235 7.7 -22.1°
Reaches altitude 10° 02:28:07 10° 53° (NE) 2,302 6.3 -21.9°
Maximum altitude 02:31:00 15° 88° (E) 1,963 5.4 -21.7°
Drops below altitude 10° 02:33:53 10° 123° (ESE) 2,292 5.4 -21.5°
Enters shadow 02:34:51 - 132° (SE) 2,524 5.5 -21.5°
